FW8355 Weather Reports


Display with metric or nautical units.
time (UTC)temp
F
wind
direction
speed
MPH
gust
MPH
rain 1hr
in
rain 24hr
in
rain mn
in
humidity
%
barometer
mb
20260904154516 92 203 4.0 9.0 0.00 0.00 0.00 39 1015.2
20260904153536 92 203 6.0 12.0 0.00 0.00 0.00 39 1015.2
20260904152516 93 203 7.0 12.0 0.00 0.00 0.00 38 1015.1
20260904151516 94 225 6.0 12.0 0.00 0.00 0.00 37 1015.1
20260904150517 94 248 4.0 11.0 0.00 0.00 0.00 36 1015.0
20260904145517 94 203 6.0 13.0 0.00 0.00 0.00 36 1014.9
20260904144516 95 225 5.0 13.0 0.00 0.00 0.00 36 1014.9
20260904143516 94 248 3.0 7.0 0.00 0.00 0.00 37 1014.9
20260904142516 94 270 6.0 11.0 0.00 0.00 0.00 38 1015.0
20260904141516 94 270 5.0 9.0 0.00 0.00 0.00 38 1015.0
20260904140516 95 225 5.0 12.0 0.00 0.00 0.00 37 1015.0
20260904135516 95 225 5.0 13.0 0.00 0.00 0.00 38 1015.1
20260904134516 95 248 5.0 14.0 0.00 0.00 0.00 38 1015.1
20260904133516 96 270 6.0 11.0 0.00 0.00 0.00 38 1015.0
20260904132516 96 270 2.0 5.0 0.00 0.00 0.00 35 1015.2
20260904131516 94 203 7.0 13.0 0.00 0.00 0.00 40 1015.2
20260904130516 95 203 7.0 15.0 0.00 0.00 0.00 39 1015.2
20260904125516 95 90 3.0 7.0 0.00 0.00 0.00 38 1015.4
20260904124516 95 90 5.0 11.0 0.00 0.00 0.00 33 1015.4
20260904123516 96 68 5.0 10.0 0.00 0.00 0.00 29 1015.4
20260904122516 96 113 5.0 10.0 0.00 0.00 0.00 28 1015.5
20260904121516 96 90 5.0 11.0 0.00 0.00 0.00 31 1015.5
20260904120516 95 68 4.0 8.0 0.00 0.00 0.00 32 1015.7
20260904115516 94 90 6.0 14.0 0.00 0.00 0.00 32 1015.7
20260904114516 94 23 6.0 12.0 0.00 0.00 0.00 32 1015.7
20260904113516 94 90 7.0 12.0 0.00 0.00 0.00 33 1015.8
20260904112556 95 68 5.0 15.0 0.00 0.00 0.00 33 1015.8
20260904111516 94 68 6.0 11.0 0.00 0.00 0.00 32 1015.8
20260904110535 94 45 7.0 17.0 0.00 0.00 0.00 31 1015.8
20260904105516 94 68 6.0 13.0 0.00 0.00 0.00 32 1015.9
20260904104536 93 45 9.0 19.0 0.00 0.00 0.00 32 1015.9
20260904103515 93 68 7.0 15.0 0.00 0.00 0.00 33 1016.0
20260904102515 93 68 8.0 15.0 0.00 0.00 0.00 32 1016.1
20260904101515 92 23 7.0 12.0 0.00 0.00 0.00 36 1016.2
20260904100516 92 68 7.0 15.0 0.00 0.00 0.00 36 1016.2
20260904095516 92 68 7.0 12.0 0.00 0.00 0.00 36 1016.2
20260904094516 91 90 7.0 14.0 0.00 0.00 0.00 36 1016.2
20260904093516 91 68 8.0 14.0 0.00 0.00 0.00 37 1016.3
20260904092515 90 68 8.0 18.0 0.00 0.00 0.00 39 1016.5
20260904091516 90 90 6.0 16.0 0.00 0.00 0.00 41 1016.7
20260904090535 90 68 6.0 15.0 0.00 0.00 0.00 40 1016.8
20260904085515 89 45 7.0 14.0 0.00 0.00 0.00 41 1016.9
20260904084515 89 23 6.0 16.0 0.00 0.00 0.00 40 1017.0
20260904083515 89 23 6.0 12.0 0.00 0.00 0.00 41 1016.9
20260904082518 90 113 1.0 5.0 0.00 0.00 0.00 39 1016.7
20260904081515 88 338 1.0 4.0 0.00 0.00 0.00 41 1016.7
20260904080517 87 45 2.0 4.0 0.00 0.00 0.00 41 1016.7
20260904075516 86 0.0 1.0 0.00 0.00 0.00 44 1016.6
20260904074517 84 113 2.0 6.0 0.00 0.00 0.00 46 1016.5
20260904073517 83 68 1.0 5.0 0.00 0.00 0.00 48 1016.6
20260904072517 83 113 1.0 4.0 0.00 0.00 0.00 48 1016.5
20260904071517 81 68 2.0 5.0 0.00 0.00 0.00 51 1016.4
20260904070517 80 68 2.0 4.0 0.00 0.00 0.00 52 1016.3
20260904065517 80 68 2.0 3.0 0.00 0.00 0.00 53 1016.2
20260904064517 78 68 1.0 3.0 0.00 0.00 0.00 55 1016.2
20260904063537 78 68 1.0 3.0 0.00 0.00 0.00 57 1016.2
20260904062517 77 90 2.0 4.0 0.00 0.00 0.00 57 1016.1
20260904061537 77 0.0 2.0 0.00 0.00 0.00 55 1016.1
20260904060537 76 0.0 1.0 0.00 0.00 0.00 58 1016.2
20260904055517 75 45 1.0 2.0 0.00 0.00 0.00 57 1016.0
20260904054517 74 23 1.0 2.0 0.00 0.00 0.00 58 1016.0
20260904053517 72 45 2.0 4.0 0.00 0.00 0.00 61 1015.9
20260904052537 72 45 1.0 2.0 0.00 0.00 0.00 62 1015.9
20260904051517 72 338 1.0 2.0 0.00 0.00 0.00 60 1015.7
20260904050517 71 338 2.0 4.0 0.00 0.00 0.00 59 1015.5
20260904045517 71 23 3.0 6.0 0.00 0.00 0.00 60 1015.5
20260904044517 68 23 3.0 6.0 0.00 0.00 0.00 64 1015.2
20260904043517 69 23 2.0 4.0 0.00 0.00 0.00 63 1015.2
20260904042517 69 338 1.0 2.0 0.00 0.00 0.00 63 1015.3
20260904041517 69 315 1.0 2.0 0.00 0.00 0.00 62 1015.5
20260904040517 70 315 1.0 3.0 0.00 0.00 0.00 60 1015.4
20260904035537 70 23 2.0 5.0 0.00 0.00 0.00 62 1015.4
20260904034537 70 0.0 0.0 0.00 0.00 0.00 61 1015.5
20260904033537 69 0.0 0.0 0.00 0.00 0.00 62 1015.4
20260904032517 68 0.0 0.0 0.00 0.00 0.00 64 1015.4
20260904031517 69 0.0 0.0 0.00 0.00 0.00 62 1015.5
20260904030517 69 0.0 0.0 0.00 0.00 0.00 63 1015.5
20260904025517 69 0.0 0.0 0.00 0.00 0.00 63 1015.5
20260904024537 69 0.0 0.0 0.00 0.00 0.00 62 1015.6
20260904023517 69 0.0 0.0 0.00 0.00 0.00 63 1015.5
20260904022517 70 0.0 0.0 0.00 0.00 0.00 61 1015.5
20260904021517 70 0.0 0.0 0.00 0.00 0.00 62 1015.5
20260904020517 70 0.0 0.0 0.00 0.00 0.00 63 1015.4
20260904015517 70 315 1.0 3.0 0.00 0.00 0.00 62 1015.4
20260904014517 70 315 1.0 3.0 0.00 0.00 0.00 62 1015.4
20260904013517 71 0.0 0.0 0.00 0.00 0.00 61 1015.4
20260904012517 71 0.0 0.0 0.00 0.00 0.00 60 1015.3
20260904011516 72 0.0 2.0 0.00 0.00 0.00 60 1015.3
20260904010519 72 293 1.0 3.0 0.00 0.00 0.00 59 1015.3
20260904005537 73 203 1.0 3.0 0.00 0.00 0.00 58 1015.3
20260904004516 74 0.0 2.0 0.00 0.00 0.00 56 1015.5
20260904003516 74 293 1.0 6.0 0.00 0.00 0.00 58 1015.5
20260904002517 73 0.0 3.0 0.00 0.00 0.00 56 1015.6
20260904001537 74 315 1.0 2.0 0.00 0.00 0.00 54 1015.5
20260904000517 74 293 3.0 6.0 0.00 0.00 0.00 54 1015.6
20260903235517 74 293 1.0 3.0 0.00 0.00 0.00 54 1015.8
20260903234517 75 270 1.0 3.0 0.00 0.00 0.00 52 1015.8
20260903233517 76 23 1.0 3.0 0.00 0.00 0.00 48 1015.7
20260903232517 78 0 2.0 5.0 0.00 0.00 0.00 46 1015.6
20260903231516 78 23 6.0 10.0 0.00 0.00 0.00 48 1015.7
20260903230516 77 23 5.0 9.0 0.00 0.00 0.00 51 1015.6
20260903225516 76 0 3.0 6.0 0.00 0.00 0.00 51 1015.7
20260903224517 75 338 5.0 8.0 0.00 0.00 0.00 49 1015.7
20260903223516 75 338 3.0 6.0 0.00 0.00 0.00 49 1015.7
20260903222516 76 338 3.0 5.0 0.00 0.00 0.00 49 1015.8
20260903221517 77 23 4.0 7.0 0.00 0.00 0.00 51 1015.7
20260903220516 77 23 3.0 6.0 0.00 0.00 0.00 47 1015.8
20260903215537 75 45 1.0 3.0 0.00 0.00 0.00 49 1015.7
20260903214517 76 90 1.0 4.0 0.00 0.00 0.00 49 1015.7
20260903213517 77 338 3.0 4.0 0.00 0.00 0.00 46 1015.4
20260903212537 78 23 3.0 7.0 0.00 0.00 0.00 47 1015.7
20260903211517 79 23 3.0 6.0 0.00 0.00 0.00 46 1015.6
20260903210517 81 23 5.0 10.0 0.00 0.00 0.00 45 1015.4
20260903205537 80 23 4.0 11.0 0.00 0.00 0.00 47 1015.4
20260903204537 81 0 3.0 7.0 0.00 0.00 0.00 47 1015.4
20260903203516 82 23 6.0 10.0 0.00 0.00 0.00 50 1015.4
20260903202516 81 23 4.0 7.0 0.00 0.00 0.00 51 1015.4
20260903201517 80 338 4.0 8.0 0.00 0.00 0.00 50 1015.4
20260903200517 79 23 3.0 7.0 0.00 0.00 0.00 56 1015.3
20260903195517 79 45 3.0 5.0 0.00 0.00 0.00 59 1015.3
20260903194537 79 45 2.0 3.0 0.00 0.00 0.00 61 1015.3
20260903193516 79 23 3.0 5.0 0.00 0.00 0.00 63 1015.2
20260903192516 79 23 4.0 6.0 0.00 0.00 0.00 64 1015.1
20260903191516 79 45 2.0 3.0 0.00 0.00 0.00 66 1015.1
20260903190537 79 23 3.0 6.0 0.00 0.00 0.00 68 1015.0
20260903185516 79 23 3.0 5.0 0.00 0.00 0.00 69 1014.9
20260903184517 78 45 1.0 3.0 0.00 0.00 0.00 73 1014.8
20260903183517 78 338 2.0 3.0 0.00 0.00 0.00 73 1014.7
20260903182516 79 338 1.0 3.0 0.00 0.00 0.00 73 1014.4
20260903181516 80 23 1.0 2.0 0.00 0.00 0.00 73 1014.4
20260903180516 80 45 2.0 3.0 0.00 0.00 0.00 72 1014.2
20260903175516 80 45 2.0 3.0 0.00 0.00 0.00 71 1014.2
20260903174516 81 0.0 2.0 0.00 0.00 0.00 70 1014.2
20260903173516 82 0.0 1.0 0.00 0.00 0.00 68 1014.3
20260903172516 82 113 1.0 2.0 0.00 0.00 0.00 66 1014.2
20260903171516 83 203 1.0 3.0 0.00 0.00 0.00 65 1014.1
20260903170516 83 203 3.0 6.0 0.00 0.00 0.00 64 1014.0
20260903165516 83 203 4.0 8.0 0.00 0.00 0.00 65 1014.0
20260903164516 84 203 2.0 6.0 0.00 0.00 0.00 66 1013.9
20260903163536 85 203 4.0 8.0 0.00 0.00 0.00 65 1013.8
20260903162516 85 203 5.0 10.0 0.00 0.00 0.00 67 1013.7
20260903161518 86 203 3.0 9.0 0.00 0.00 0.00 63 1013.7
20260903160536 85 225 3.0 8.0 0.00 0.00 0.00 61 1013.7
20260903155516 84 225 3.0 8.0 0.00 0.00 0.00 61 1013.6